Location: Unspecified
(50.6435°N, 0.0000°E)
Time: 05:02:07
(UTC+00:00)

Meteor 1-10 Rocket - Visible Passes

Search period start: 04 April 2026 00:00
Search period end: 14 April 2026 00:00
Orbit: 834 x 909 km, 81.2° (Epoch: 29 March)

Date Brightness Start Highest point End Pass type
(mag) Time Alt. Az. Time Alt. Az. Time Alt. Az.
4 Apr 7.1 03:14:22 10° ESE 03:16:53 13° E 03:19:23 10° NE visible
4 Apr 4.5 04:53:42 10° S 04:59:14 79° E 05:04:54 10° NNE visible
5 Apr 7.0 03:08:24 10° ESE 03:11:04 14° E 03:13:46 10° NE visible
5 Apr 4.4 04:47:55 10° S 04:53:28 81° E 04:59:09 10° NNE visible
6 Apr 7.0 03:02:26 10° ESE 03:05:17 14° E 03:08:08 10° NE visible
6 Apr 4.4 04:42:08 10° S 04:47:42 84° E 04:53:24 10° NNE visible
7 Apr 6.9 02:56:29 10° ESE 02:59:28 15° E 03:02:30 10° NE visible
7 Apr 4.3 04:36:22 10° S 04:41:56 86° E 04:47:38 10° NNE visible
8 Apr 6.9 02:50:32 10° ESE 02:53:40 15° E 02:56:51 10° NE visible
8 Apr 4.3 04:30:35 10° S 04:36:09 89° ESE 04:41:53 10° NNE visible
9 Apr 6.8 02:44:36 10° ESE 02:47:53 16° E 02:51:11 10° NE visible
9 Apr 4.3 04:24:49 10° S 04:30:24 88° WNW 04:36:08 10° NNE visible
10 Apr 6.8 02:38:40 10° ESE 02:42:05 17° E 02:45:32 10° NE visible
10 Apr 4.2 04:19:02 10° SSW 04:24:38 86° W 04:30:23 10° NNE visible
11 Apr 6.7 02:32:45 10° ESE 02:36:17 17° E 02:39:51 10° NE visible
11 Apr 4.2 04:13:17 10° SSW 04:18:52 83° WNW 04:24:37 10° NNE visible
12 Apr 6.7 02:26:51 10° ESE 02:30:29 18° E 02:34:11 10° NE visible
12 Apr 4.2 04:07:30 10° SSW 04:13:06 81° WNW 04:18:52 10° N visible
13 Apr 6.6 02:20:56 10° SE 02:24:42 19° E 02:28:29 10° NE visible
13 Apr 4.2 04:01:44 10° SSW 04:07:21 78° WNW 04:13:07 10° N visible
